Tracking 29892 objects as of 21-Nov-2024
HD Live streaming from Space Station
objects crossing your sky now

IRIDIUM 33 DEB

Track IRIDIUM 33 DEB now!
10-day predictions


NORAD ID: 35488
Int'l Code: 1997-051QJ
Perigee: 638.7 km
Apogee: 682.8 km
Inclination: 86.3 °
Period: 97.8 minutes
Semi major axis: 7031 km
RCS: 0.0055 m2 (small)
Launch date: September 14, 1997
Source: United States (US)
Launch site: TYURATAM MISSILE AND SPACE COMPLEX (TTMTR)

Note: This is SATELLITE DEBRIS
Your satellite tracking list
Your tracking list is empty




NASA's NSSDC Master Catalog

Two Line Element Set (TLE):
1 35488U 97051QJ  24325.88647850  .00013108  00000-0  20513-2 0  9998
2 35488  86.3264 117.7356 0031385 313.9902  45.8727 14.72337873825593
Source of the keplerian elements: AFSPC